Traverse City, MI

7:48 PM EDT on September 22, 2017 (GMT -0400)
Cherry Capital

Weather History for KTVC - January, 2013

Change the Weather History Date:

Sunday, January 27, 2013

  Actual Average Record
Temperature  
Mean Temperature 26 °F 21 °F  
Max Temperature 32 °F 28 °F 55 °F (1916)
Min Temperature 20 °F 14 °F -19 °F (1918)
Degree Days  
Heating Degree Days 39 44  
Month to date heating degree days 1076 1173  
Since 1 July heating degree days 3543 3981  
Moisture  
Dew Point 22 °F    
Average Humidity 73    
Maximum Humidity 92    
Minimum Humidity 54    
Precipitation  
Precipitation 0.39 in 0.08 in 1.23 in (1996)
Month to date precipitation 0.97 2.51  
Year to date precipitation 0.97 2.51  
Snow  
Snow 0.00 in - - ()
Snow Depth 6.00 in    
Sea Level Pressure  
Sea Level Pressure 30.21 in    
Wind  
Wind Speed 5 mph (SSE)    
Max Wind Speed 12 mph    
Max Gust Speed 20 mph    
Visibility 5 miles    
Events Fog , Snow    
T = Trace of Precipitation, MM = Missing Value Source: NWS Daily Summary

Daily Weather History Graph

Daily Weather History Graph

Search for Another Location

Airport or City:

Trip Planner

Search our weather history database for the weather conditions in past years. The results will help you decide how hot, cold, wet, or windy it might be!

Date:

Astronomy

Jan. 27, 2013 Rise Set
Actual Time 8:06 AM EST 5:44 PM EST
Civil Twilight 7:35 AM EST 6:15 PM EST
Nautical Twilight 6:59 AM EST 6:51 PM EST
Astronomical Twilight 6:25 AM EST 7:25 PM EST
Moon 6:42 PM EST (1/27) 7:55 AM EST (1/27)
Length of Visible Light 10h 40m
Length of Day
9h 37m
Full, 100% of the Moon is Illuminated
Jan 27
Full
Feb 3
Last Quarter
Feb 10
New
Feb 17
First Quarter
Feb 25
Full

Hourly Weather History & Observations

Time (EST) Temp. Windchill Dew Point Humidity Pressure Visibility Wind Dir Wind Speed Gust Speed Precip Events Conditions
12:53 AM 21.0 °F - 16.0 °F 81% 30.40 in 10.0 mi Calm Calm - N/A   Overcast
1:53 AM 21.9 °F - 16.0 °F 78% 30.40 in 10.0 mi Calm Calm - N/A   Overcast
2:53 AM 21.9 °F 15.7 °F 16.0 °F 78% 30.38 in 10.0 mi SSE 4.6 mph - N/A   Overcast
3:35 AM 23.0 °F 18.4 °F 17.6 °F 80% 30.34 in 10.0 mi SE 3.5 mph - N/A   Overcast
3:53 AM 23.0 °F 18.4 °F 17.1 °F 78% 30.37 in 10.0 mi South 3.5 mph - N/A   Overcast
4:53 AM 24.1 °F 18.2 °F 17.1 °F 75% 30.37 in 10.0 mi Variable 4.6 mph - N/A   Overcast
5:43 AM 24.8 °F - 17.6 °F 74% 30.33 in 10.0 mi Calm Calm - N/A   Overcast
5:53 AM 25.0 °F - 18.0 °F 75% 30.37 in 10.0 mi Calm Calm - N/A   Overcast
7:29 AM 24.8 °F 20.5 °F 19.4 °F 80% 30.33 in 1.5 mi Variable 3.5 mph - 0.00 in Snow Light Snow
7:53 AM 25.0 °F 19.3 °F 19.9 °F 81% 30.36 in 1.5 mi Variable 4.6 mph - 0.00 in Snow Light Snow
8:16 AM 24.8 °F 19.1 °F 19.4 °F 80% 30.33 in 6.0 mi SSE 4.6 mph - 0.00 in Snow Light Snow
8:53 AM 26.1 °F 18.4 °F 18.0 °F 71% 30.35 in 10.0 mi Variable 6.9 mph - 0.00 in   Overcast
9:53 AM 26.1 °F 18.4 °F 18.0 °F 71% 30.34 in 10.0 mi South 6.9 mph - N/A   Overcast
10:53 AM 28.0 °F 21.7 °F 18.0 °F 66% 30.34 in 10.0 mi Variable 5.8 mph - N/A   Overcast
11:53 AM 28.0 °F 20.0 °F 18.0 °F 66% 30.35 in 10.0 mi South 8.1 mph - N/A   Overcast
12:53 PM 30.0 °F 24.1 °F 19.0 °F 64% 30.31 in 10.0 mi South 5.8 mph - N/A   Overcast
1:53 PM 30.9 °F 25.2 °F 19.0 °F 61% 30.27 in 10.0 mi SSE 5.8 mph - N/A   Overcast
2:53 PM 30.9 °F 26.2 °F 18.0 °F 59% 30.24 in 10.0 mi Variable 4.6 mph - N/A   Overcast
3:53 PM 32.0 °F 25.6 °F 18.0 °F 56% 30.21 in 10.0 mi SSE 6.9 mph - N/A   Overcast
4:26 PM 30.2 °F 23.4 °F 19.4 °F 64% 30.20 in 2.5 mi Variable 6.9 mph - 0.00 in Snow Light Snow
4:34 PM 30.2 °F 22.6 °F 23.0 °F 75% 30.20 in 1.5 mi South 8.1 mph - 0.00 in Snow Light Snow
4:46 PM 30.2 °F 24.3 °F 24.8 °F 80% 30.19 in 2.0 mi SSE 5.8 mph - 0.00 in Snow Light Snow
4:53 PM 30.0 °F 25.2 °F 24.1 °F 79% 30.22 in 2.5 mi Variable 4.6 mph - 0.00 in Snow Light Snow
5:11 PM 28.4 °F 22.2 °F 24.8 °F 86% 30.18 in 1.2 mi Variable 5.8 mph - 0.00 in Snow Light Snow
5:53 PM 28.9 °F 23.9 °F 25.0 °F 85% 30.21 in 1.5 mi South 4.6 mph - 0.01 in Snow Light Snow
6:53 PM 28.0 °F 22.8 °F 25.0 °F 88% 30.20 in 1.2 mi SSE 4.6 mph - 0.03 in Snow Light Snow
7:09 PM 28.4 °F 24.6 °F 24.8 °F 86% 30.17 in 1.2 mi Variable 3.5 mph - 0.01 in Snow Light Snow
7:27 PM 28.4 °F 22.2 °F 24.8 °F 86% 30.17 in 0.8 mi SSE 5.8 mph - 0.04 in Snow Light Snow
7:44 PM 28.4 °F 23.3 °F 24.8 °F 86% 30.17 in 0.8 mi SSE 4.6 mph - 0.06 in Snow Light Snow
7:53 PM 27.0 °F 21.6 °F 25.0 °F 92% 30.19 in 0.8 mi Variable 4.6 mph - 0.08 in Snow Light Snow
8:02 PM 26.6 °F 21.2 °F 24.8 °F 93% 30.15 in 1.2 mi SSE 4.6 mph - 0.01 in Snow Light Snow
8:06 PM 26.6 °F 19.1 °F 24.8 °F 93% 30.15 in 2.0 mi SE 6.9 mph - 0.02 in Snow Light Snow
8:26 PM 26.6 °F 20.0 °F 24.8 °F 93% 30.14 in 1.8 mi Variable 5.8 mph - 0.03 in Snow Light Snow
8:46 PM 26.6 °F 20.0 °F 24.8 °F 93% 30.12 in 3.0 mi ESE 5.8 mph - 0.05 in Snow Light Snow
8:53 PM 27.0 °F 20.5 °F 23.0 °F 85% 30.15 in 4.0 mi SE 5.8 mph - 0.05 in Snow Light Snow
9:08 PM 26.6 °F 22.6 °F 23.0 °F 86% 30.11 in 1.8 mi Variable 3.5 mph - 0.01 in Snow Light Snow
9:21 PM 26.6 °F 19.1 °F 23.0 °F 86% 30.10 in 1.5 mi Variable 6.9 mph - 0.01 in Snow Light Snow
9:53 PM 27.0 °F 19.5 °F 24.1 °F 89% 30.10 in 1.2 mi SE 6.9 mph - 0.03 in Snow Light Snow
10:20 PM 26.6 °F 20.0 °F 24.8 °F 93% 30.06 in 0.8 mi SSE 5.8 mph 19.6 mph 0.01 in Snow Light Snow
10:30 PM 26.6 °F 17.5 °F 24.8 °F 93% 30.06 in 0.5 mi SSE 9.2 mph - 0.03 in Fog , Snow Snow
10:34 PM 26.6 °F 16.2 °F 24.8 °F 93% 30.05 in 0.2 mi SSE 11.5 mph 17.3 mph 0.04 in Fog , Snow Heavy Snow
10:53 PM 27.0 °F 18.7 °F 24.1 °F 89% 30.07 in 0.2 mi SE 8.1 mph - 0.09 in Fog , Snow Heavy Snow
11:14 PM 26.6 °F 18.2 °F 24.8 °F 93% 30.02 in 0.5 mi SSE 8.1 mph - 0.08 in Fog , Snow Snow
11:30 PM 26.6 °F 22.6 °F 24.8 °F 93% 30.01 in 1.5 mi Variable 3.5 mph - 0.10 in Snow Light Snow
11:35 PM 26.6 °F 22.6 °F 24.8 °F 93% 30.00 in 2.0 mi SE 3.5 mph - 0.10 in Snow Light Snow
11:53 PM 28.0 °F 22.8 °F 24.1 °F 85% 30.03 in 7.0 mi SE 4.6 mph - 0.10 in   Overcast